RH
50 50 56 61 58 57 62 57 51 46 61 68 56 55 54 43 33 32 35 34 34 34 34 33 32 30 29 28 26 23 19 16 12 9 6 5 5 6 10 14 18 28 36 36
63 58 62 45 62 71 68 65 61 53 44 37 32 30 32 34 33 32 37 38 37 36 34 32 29 27 24 21 17 14 11 8 7 6 6 8 10 28 35 41 42 37 25 16
73 79 63 42 48 62 60 61 54 48 44 40 38 37 41 44 42 39 45 53 46 41 33 28 26 23 19 15 12 10 6 5 8 12 19 30 32 31 31 22 13 10 7 8
82 81 62 48 53 64 54 54 48 45 44 43 47 45 50 65 60 43 60 70 54 34 24 23 20 18 14 11 9 7 6 11 17 24 38 38 36 33 13 7 6 9 22 18
85 75 55 52 57 56 59 57 51 50 52 50 51 53 50 100 83 56 57 67 40 21 20 19 16 13 12 10 10 17 28 27 34 33 36 36 18 7 5 6 7 26 24 17
83 74 54 61 65 66 61 54 54 54 56 51 66 100 94 100 100 81 64 67 25 21 21 18 13 12 10 15 22 31 37 34 43 41 38 8 6 6 5 8 14 21 24 24
96 91 68 69 74 62 54 56 62 61 64 63 100 99 100 78 93 100 61 40 27 23 22 19 10 6 11 36 41 46 48 48 53 37 6 6 4 4 6 6 6 8 18 26
94 97 80 69 68 61 77 84 73 66 57 58 79 88 90 64 43 44 59 61 38 26 22 8 5 5 33 48 54 64 64 71 60 13 6 4 4 6 13 12 4 4 5 18
99 100 84 70 71 90 89 93 72 63 59 53 46 42 60 55 57 63 51 57 21 15 9 5 3 5 30 56 62 76 78 81 50 10 6 4 5 7 15 11 7 5 5 6
100 99 97 88 72 92 92 62 58 50 50 45 45 61 82 67 45 59 59 47 19 13 7 4 4 3 20 57 76 88 84 80 45 8 6 5 6 7 10 7 5 4 5 5
100 90 99 95 75 69 65 64 62 71 74 84 58 42 54 69 76 58 34 14 11 7 5 5 4 4 19 46 51 77 88 88 45 9 7 6 6 6 6 5 5 4 6 5
99 88 94 95 91 86 75 79 64 34 44 27 27 46 52 39 29 30 17 8 8 7 5 4 4 4 4 18 29 62 96 93 40 11 9 7 6 10 7 6 7 5 6 7
81 77 81 90 80 72 74 73 74 50 38 36 40 42 34 22 17 12 11 10 6 4 4 5 4 4 4 4 17 95 100 99 30 12 12 10 12 13 13 8 6 5 7 14
98 92 97 84 84 95 84 92 88 82 70 41 46 32 26 11 7 5 6 5 6 8 8 7 6 5 5 30 97 100 100 80 18 16 15 19 26 16 18 11 6 5 11 22
100 96 82 90 93 87 89 72 52 26 34 34 48 16 9 6 6 8 10 11 17 51 48 15 8 13 68 99 100 100 99 34 22 20 20 23 28 24 24 8 4 6 18 38
100 98 99 95 89 87 78 70 54 32 52 51 21 13 12 9 12 12 28 45 35 98 73 21 100 98 99 100 100 100 68 28 26 19 20 26 35 26 9 4 5 7 21 46
99 100 95 88 86 77 62 54 53 57 31 16 9 8 9 13 11 74 84 55 43 34 38 49 86 100 100 100 100 100 86 54 43 39 35 35 14 5 5 6 8 18 36 69
98 100 98 86 84 69 61 68 54 28 14 9 8 13 14 14 37 62 74 56 61 87 96 99 100 100 100 100 98 62 37 25 22 29 19 6 6 6 8 14 29 54 89 96
100 100 97 93 89 76 79 42 51 30 18 28 13 15 28 38 45 70 100 88 91 100 98 97 100 100 100 100 61 17 24 22 15 8 8 8 8 14 32 50 76 95 93 100
100 100 100 91 88 76 46 82 40 33 34 19 26 32 17 35 53 88 88 90 89 97 99 100 98 71 34 34 21 43 24 9 9 10 12 13 29 40 58 82 86 91 95 97
98 100 93 99 91 64 26 49 20 25 23 28 26 20 14 30 72 69 93 95 91 88 94 97 98 41 40 64 42 11 10 11 13 18 28 46 58 61 72 80 94 100 96 100
100 99 97 79 38 36 37 29 23 35 19 17 18 19 14 29 77 78 93 100 94 92 100 100 92 85 54 15 12 10 10 20 29 34 50 60 65 74 85 90 89 89 93 100
96 100 100 98 66 54 35 26 17 19 20 20 22 19 14 64 84 86 88 97 100 100 100 96 55 19 14 12 11 11 18 32 48 52 68 73 76 84 93 93 89 81 80 90
97 100 79 57 47 33 18 22 20 27 25 23 24 20 17 62 92 80 80 94 100 100 99 31 17 14 13 12 12 17 26 45 63 80 84 89 95 100 100 97 93 91 94 95
98 67 47 26 18 29 42 39 37 36 36 30 26 22 25 25 70 99 92 90 97 98 77 17 13 11 13 14 16 19 34 77 81 83 86 96 100 100 100 100 100 100 97 97
56 44 73 62 60 59 71 81 56 66 47 40 28 25 37 68 73 96 100 95 100 96 37 17 11 10 13 16 21 25 44 65 78 92 98 100 100 100 100 100 100 97 98 99
Wind_Speed
29 33 31 34 35 35 36 31 34 35 33 42 47 44 41 44 48 50 43 46 47 47 49 49 50 51 51 52 53 53 54 54 53 53 52 51 49 49 50 51 51 52 53 54
33 37 36 42 36 35 36 36 34 38 39 43 41 39 41 41 51 54 48 47 46 48 49 48 48 48 50 51 50 51 50 50 50 50 48 46 44 45 45 45 47 49 51 52
42 41 42 44 38 37 37 36 39 41 37 40 43 45 42 43 46 50 50 48 48 47 46 46 46 46 47 47 48 48 48 48 47 44 43 42 42 43 43 44 45 46 49 47
46 40 44 44 42 41 47 42 43 37 38 40 39 46 41 36 40 48 44 46 41 41 44 45 45 45 45 44 44 45 47 46 44 42 41 42 43 42 41 41 41 40 40 40
41 43 45 43 43 48 43 46 41 42 42 45 43 41 36 22 34 42 47 36 41 41 43 43 43 43 43 43 44 44 43 45 44 41 42 42 39 38 35 35 38 38 40 44
40 44 45 45 48 46 44 43 42 43 44 47 37 22 19 24 27 40 47 44 43 42 44 43 41 43 43 41 41 43 44 45 42 40 38 36 34 30 29 28 29 32 32 34
43 47 47 48 47 45 43 42 42 44 34 40 17 28 23 38 35 41 45 39 39 40 41 40 42 42 40 38 40 41 41 38 35 35 34 32 28 31 28 24 25 27 28 31
45 47 51 52 47 41 44 44 45 41 39 37 33 36 36 44 47 45 42 37 34 36 40 42 40 38 38 41 40 39 37 34 34 34 32 27 30 35 32 26 24 27 29 28
47 41 52 53 47 41 37 39 39 43 40 42 42 38 35 39 39 40 40 33 36 40 41 42 40 38 38 40 39 36 35 35 35 34 30 27 33 37 33 30 30 32 33 31
51 50 47 45 42 36 34 33 38 38 42 41 38 30 28 40 43 35 36 37 43 46 44 41 41 39 37 39 38 36 36 36 35 33 29 27 32 34 32 29 31 33 37 39
42 41 38 40 42 33 34 39 35 38 39 39 39 39 36 37 34 36 41 44 46 46 46 43 43 40 38 38 40 40 38 35 35 31 28 28 31 33 32 29 29 33 37 39
38 46 40 36 35 36 37 33 34 36 37 38 38 35 30 39 43 44 43 45 47 47 45 44 46 43 39 40 42 42 39 35 34 30 28 27 27 27 29 29 29 32 35 38
43 40 36 36 33 31 38 39 37 38 40 37 35 38 32 40 42 44 49 48 46 42 40 44 47 44 40 40 42 39 36 32 31 28 27 28 27 30 30 31 31 34 35 35
40 39 40 35 26 30 36 31 35 31 39 33 38 36 31 38 39 40 44 46 45 51 50 47 43 40 39 40 38 36 32 27 28 27 26 27 28 30 31 33 34 35 35 34
39 40 36 37 37 36 38 38 41 37 33 38 36 39 35 36 40 42 45 48 47 44 44 42 38 36 36 35 29 29 24 26 27 27 26 28 30 33 33 34 35 35 34 32
38 38 37 36 37 38 38 40 38 36 36 37 36 38 34 38 41 46 40 40 36 36 37 29 27 29 32 34 33 30 24 25 26 27 28 30 34 36 36 35 35 33 32 30
37 37 37 36 35 38 41 36 35 34 31 32 33 32 37 38 43 36 34 41 31 28 27 26 30 34 39 37 31 23 23 25 26 29 32 35 36 36 35 33 32 30 30 28
36 35 36 36 36 40 34 36 29 30 28 29 28 29 39 41 33 34 39 31 22 22 24 26 31 37 33 28 24 27 27 28 30 33 35 34 35 34 32 30 29 28 26 26
37 35 37 37 37 36 33 29 28 27 24 24 27 31 36 37 29 30 23 23 22 26 27 32 31 28 27 26 26 28 28 30 32 32 32 32 31 29 26 26 26 26 26 26
35 37 38 38 36 34 28 21 31 22 23 27 27 30 35 31 29 24 26 25 25 28 30 29 28 25 25 26 28 29 30 30 30 30 29 27 24 22 22 24 26 28 26 28
33 34 35 33 34 31 30 26 31 29 28 26 29 33 35 28 24 23 24 25 25 26 30 28 26 27 27 28 30 29 29 28 28 27 25 23 22 23 24 25 27 26 26 28
30 29 31 31 31 32 26 29 26 26 28 30 31 34 34 29 29 27 27 28 29 30 36 32 26 29 28 29 29 28 27 26 25 24 24 23 24 25 26 28 28 25 24 27
35 27 25 27 26 27 24 23 27 30 29 29 31 34 32 28 27 27 26 29 33 36 33 23 23 26 28 28 27 27 25 25 25 26 27 26 26 27 28 29 27 25 25 26
33 30 36 34 30 27 26 30 31 34 30 32 31 32 30 27 26 27 28 30 31 32 23 24 26 28 27 27 26 25 25 25 26 27 28 28 28 30 30 27 26 26 27 29
30 33 32 27 24 26 29 32 34 30 30 33 31 33 31 31 26 29 29 31 30 28 24 26 27 27 26 26 25 26 26 26 27 27 28 28 30 29 28 27 28 29 30 30
27 27 25 22 25 29 30 31 31 31 32 32 34 33 32 32 31 29 30 32 31 33 27 27 27 26 26 26 26 26 27 28 29 29 30 30 30 30 29 29 30 31 31 31
Wind_Direction
282 290 293 281 278 292 286 276 277 277 268 270 281 292 289 285 290 289 291 290 291 291 291 292 293 293 292 292 291 291 293 292 292 292 291 291 289 288 287 284 284 284 282 280
280 283 282 285 286 278 277 279 276 273 275 275 280 282 282 289 290 292 297 293 293 293 294 295 294 294 294 293 294 293 294 294 294 293 292 291 288 290 288 287 287 287 287 287
279 281 280 281 282 278 277 277 275 276 280 282 289 288 287 286 289 292 295 295 297 296 295 294 295 295 294 293 294 295 294 293 293 292 290 290 288 288 291 294 295 294 295 298
276 273 271 274 275 278 278 279 279 281 281 285 284 286 285 289 288 291 291 290 297 297 297 298 297 295 295 294 294 292 291 294 295 293 291 291 289 290 294 294 295 295 297 302
270 269 270 271 275 271 279 276 282 282 287 288 287 288 295 268 276 281 279 288 295 297 297 298 298 299 298 295 293 294 295 296 292 290 289 291 291 294 294 297 293 295 305 304
273 266 270 272 268 273 272 274 276 282 285 286 296 295 289 252 250 266 290 293 298 299 299 300 299 297 296 295 295 293 293 294 288 291 292 293 292 294 295 301 306 303 310 309
267 264 266 265 266 266 267 273 280 281 279 290 288 258 268 268 267 271 284 292 292 294 295 296 294 295 295 294 297 294 294 295 292 296 297 293 294 289 293 310 319 324 315 316
264 253 260 263 257 263 272 277 275 276 271 269 247 258 263 278 282 285 286 292 292 290 294 294 296 296 293 291 296 294 294 296 297 299 297 293 282 289 289 308 324 334 336 322
250 246 257 268 268 265 266 270 273 276 278 277 280 283 285 280 282 284 292 290 294 295 294 295 296 294 291 292 291 289 294 295 298 298 295 285 281 290 295 309 324 334 337 337
253 256 258 263 265 268 272 269 273 277 280 280 280 274 266 280 289 292 291 295 295 295 297 299 299 295 288 290 292 287 290 292 296 294 293 284 285 289 297 311 323 331 334 337
256 253 254 259 265 272 273 272 270 274 275 281 285 290 293 288 291 290 290 291 292 293 297 298 297 295 285 285 287 290 286 286 292 289 288 285 287 292 294 306 321 326 328 333
254 256 256 267 267 268 268 269 271 270 279 274 281 289 287 291 289 287 290 289 289 293 296 298 295 295 286 281 284 289 283 281 288 285 285 284 287 294 300 306 315 318 322 325
258 261 264 263 264 269 274 277 274 265 270 278 281 287 288 282 286 294 294 294 297 297 294 291 292 290 287 285 283 284 279 275 284 283 285 283 288 291 299 304 307 312 317 321
260 260 262 260 248 249 262 262 271 271 279 287 280 287 281 284 289 289 285 290 294 292 289 287 286 284 284 285 286 283 273 276 280 282 284 284 290 291 301 303 304 305 309 314
254 255 252 259 264 258 269 271 271 274 280 281 291 289 292 291 288 289 293 293 291 288 290 288 289 285 285 285 287 281 273 279 282 283 283 285 292 294 298 299 298 300 303 306
254 258 261 264 266 266 267 265 270 276 280 282 286 288 292 291 299 302 302 303 296 286 297 286 281 285 291 286 279 282 277 285 285 286 287 291 293 293 293 297 297 299 300 299
256 263 267 267 264 266 271 279 274 276 275 280 283 288 288 298 300 295 292 302 297 292 292 282 274 279 285 281 284 283 283 288 290 289 290 291 292 294 295 296 296 298 297 294
264 260 264 265 267 270 279 274 279 279 281 280 283 293 294 300 299 290 294 296 300 301 298 293 283 279 286 287 289 291 289 289 290 293 295 297 297 296 295 297 299 297 294 290
260 260 260 263 267 274 272 284 281 278 281 282 288 290 295 298 301 306 296 285 293 292 296 298 296 291 289 292 292 292 293 297 298 300 302 301 301 301 302 304 302 300 296 293
255 256 258 263 264 267 274 274 277 285 281 280 287 291 296 293 293 301 304 282 279 289 293 295 291 295 294 292 294 296 299 299 301 305 305 305 306 306 306 305 304 301 297 297
262 252 254 255 259 265 266 261 271 275 277 285 289 294 303 291 290 292 300 296 293 295 301 292 290 293 293 294 297 299 300 301 303 304 304 304 303 304 304 303 299 295 296 298
255 247 250 253 258 262 267 269 274 273 282 288 293 295 296 288 287 288 294 298 296 295 298 295 288 290 294 298 300 301 299 299 301 300 299 300 301 301 301 298 295 295 300 301
240 241 257 260 257 259 269 274 281 278 280 285 289 294 294 292 285 279 288 297 301 299 295 291 292 295 297 298 300 299 299 298 294 293 295 295 299 301 297 293 292 294 299 299
241 241 244 249 259 265 275 271 273 276 286 287 293 294 291 287 286 281 288 295 300 298 286 293 297 299 299 298 298 297 296 295 293 292 294 296 298 295 292 290 291 293 296 298
242 244 254 256 256 256 263 267 268 277 280 285 288 291 291 288 287 280 280 288 298 301 291 296 301 299 297 297 297 295 294 294 295 295 296 298 295 290 290 292 296 298 297 296
247 252 252 255 261 259 257 263 271 273 280 286 289 292 289 288 291 280 278 286 292 301 294 300 301 298 297 297 298 297 296 296 295 295 296 294 289 292 293 295 297 297 297 294